CW4498 Weather Reports


Display with metric or nautical units.
time (UTC)temp
F
wind
direction
speed
MPH
gust
MPH
rain 1hr
in
rain 24hr
in
rain mn
in
humidity
%
barometer
mb
20260504044543 52 279 1.0 2.0 0.00 0.00 0.00 33 1017.5
20260504043038 52 280 1.0 3.0 0.00 0.00 0.00 33 1017.6
20260504041536 53 284 0.0 1.0 0.00 0.00 0.00 32 1017.7
20260504040039 55 284 0.0 1.0 0.00 0.00 0.00 28 1017.7
20260504034553 56 309 1.0 6.0 0.00 0.00 0.00 28 1017.7
20260504033039 56 290 1.0 4.0 0.00 0.00 0.00 28 1017.6
20260504031535 56 315 1.0 5.0 0.00 0.00 0.00 28 1017.8
20260504030042 56 297 2.0 6.0 0.00 0.00 0.00 29 1017.6
20260504024535 56 313 2.0 7.0 0.00 0.00 0.00 29 1017.4
20260504023036 57 38 0.0 4.0 0.00 0.00 0.00 28 1017.3
20260504021534 58 288 1.0 4.0 0.00 0.00 0.00 26 1017.2
20260504020036 58 277 0.0 4.0 0.00 0.00 0.00 26 1017.2
20260504014541 59 279 1.0 8.0 0.00 0.00 0.00 26 1017.3
20260504013033 59 315 7.0 18.0 0.00 0.00 0.00 26 1017.3
20260504011532 60 294 3.0 6.0 0.00 0.00 0.00 22 1016.8
20260504010031 61 346 1.0 21.0 0.00 0.00 0.00 22 1016.8
20260504004533 62 286 2.0 10.0 0.00 0.00 0.00 21 1016.7
20260504003034 62 234 1.0 4.0 0.00 0.00 0.00 22 1016.7
20260504001530 63 309 1.0 3.0 0.00 0.00 0.00 21 1016.7
20260504000029 64 144 0.0 5.0 0.00 0.00 0.00 19 1016.7
20260503234538 64 159 2.0 8.0 0.00 0.00 0.00 18 1016.8
20260503233027 64 268 1.0 5.0 0.00 0.00 0.00 17 1016.9
20260503231530 65 249 3.0 9.0 0.00 0.00 0.00 18 1017.1
20260503230026 65 245 2.0 6.0 0.00 0.00 0.00 18 1017.0
20260503224526 66 291 3.0 7.0 0.00 0.00 0.00 17 1017.1
20260503223025 65 202 1.0 9.0 0.00 0.00 0.00 18 1017.3
20260503221524 64 304 0.0 2.0 0.00 0.00 0.00 18 1017.5
20260503220024 64 150 0.0 4.0 0.00 0.00 0.00 20 1017.7
20260503214526 65 272 0.0 4.0 0.00 0.00 0.00 18 1018.1
20260503213022 64 215 0.0 7.0 0.00 0.00 0.00 18 1018.3
20260503211523 65 226 1.0 6.0 0.00 0.00 0.00 18 1018.7
20260503210025 65 91 3.0 5.0 0.00 0.00 0.00 17 1018.9
20260503204521 65 114 2.0 9.0 0.00 0.00 0.00 17 1019.2
20260503203022 66 81 3.0 10.0 0.00 0.00 0.00 16 1019.6
20260503201518 68 107 4.0 7.0 0.00 0.00 0.00 16 1019.7
20260503200016 67 88 1.0 4.0 0.00 0.00 0.00 17 1020.1
20260503194515 68 132 2.0 9.0 0.00 0.00 0.00 17 1020.3
20260503193012 67 89 1.0 7.0 0.00 0.00 0.00 18 1020.6
20260503191511 66 125 2.0 8.0 0.00 0.00 0.00 16 1020.8
20260503190009 66 126 0.0 6.0 0.00 0.00 0.00 19 1021.1
20260503184515 65 95 3.0 11.0 0.00 0.00 0.00 18 1021.3
20260503183006 65 87 2.0 7.0 0.00 0.00 0.00 19 1021.5
20260503181506 64 265 4.0 7.0 0.00 0.00 0.00 19 1021.9
20260503180003 62 277 3.0 15.0 0.00 0.00 0.00 19 1022.1
20260503174502 62 315 4.0 11.0 0.00 0.00 0.00 20 1022.6
20260503173118 61 124 1.0 5.0 0.00 0.00 0.00 21 1022.8
20260503171558 60 286 3.0 9.0 0.00 0.00 0.00 22 1023.1
20260503081514 46 275 0.0 3.0 0.00 0.00 0.00 35 1025.6